QPF
0.02 0.05 0.06 0.04 0.02 0.02 0.01 0.01 0.03 0.02 0.01 0.01 0.01 0.01 0.01 0.00 0.00 0.00 0.01 0.04 0.05 0.03 0.01 0.01 0.01 0.01 0.01 0.01 0.01 0.02 0.02 0.01 0.00 0.01 0.00 0.00 0.01 0.01 0.01 0.02 0.02 0.03 0.03
0.03 0.05 0.08 0.04 0.02 0.02 0.01 0.01 0.02 0.03 0.02 0.01 0.01 0.01 0.01 0.00 0.00 0.00 0.00 0.01 0.03 0.03 0.01 0.01 0.00 0.00 0.00 0.01 0.01 0.01 0.01 0.02 0.02 0.01 0.01 0.00 0.00 0.01 0.02 0.02 0.01 0.02 0.03
0.02 0.04 0.04 0.03 0.04 0.03 0.02 0.02 0.02 0.02 0.03 0.02 0.01 0.01 0.01 0.01 0.00 0.00 0.00 0.00 0.01 0.01 0.01 0.01 0.00 0.00 0.00 0.00 0.00 0.01 0.01 0.01 0.02 0.02 0.01 0.00 0.00 0.00 0.01 0.02 0.01 0.01 0.01
0.02 0.03 0.04 0.05 0.05 0.04 0.04 0.04 0.03 0.03 0.02 0.02 0.01 0.01 0.01 0.01 0.00 0.00 0.00 0.00 0.00 0.00 0.00 0.01 0.01 0.01 0.00 0.00 0.00 0.00 0.01 0.01 0.01 0.02 0.01 0.01 0.01 0.01 0.00 0.00 0.00 0.01 0.01
0.04 0.04 0.04 0.04 0.04 0.05 0.06 0.05 0.04 0.04 0.03 0.03 0.03 0.01 0.01 0.01 0.01 0.00 0.00 0.00 0.00 0.00 0.00 0.01 0.01 0.01 0.00 0.00 0.00 0.00 0.00 0.01 0.01 0.02 0.02 0.02 0.01 0.01 0.01 0.01 0.00 0.00 0.00
0.04 0.04 0.03 0.04 0.04 0.06 0.06 0.05 0.06 0.08 0.09 0.08 0.06 0.04 0.03 0.03 0.03 0.01 0.01 0.00 0.00 0.00 0.01 0.00 0.00 0.00 0.00 0.00 0.00 0.00 0.00 0.00 0.01 0.01 0.02 0.02 0.02 0.01 0.01 0.01 0.01 0.01 0.01
0.03 0.02 0.03 0.04 0.05 0.06 0.07 0.08 0.08 0.08 0.09 0.08 0.07 0.06 0.06 0.06 0.06 0.03 0.02 0.02 0.01 0.00 0.00 0.01 0.00 0.00 0.00 0.00 0.00 0.00 0.00 0.00 0.00 0.01 0.01 0.02 0.01 0.01 0.01 0.01 0.02 0.02 0.01
0.02 0.02 0.03 0.03 0.03 0.05 0.04 0.04 0.04 0.05 0.05 0.06 0.06 0.06 0.06 0.06 0.07 0.07 0.05 0.03 0.02 0.01 0.01 0.01 0.01 0.00 0.00 0.00 0.00 0.00 0.00 0.00 0.00 0.00 0.01 0.01 0.02 0.01 0.01 0.01 0.01 0.01 0.01
0.02 0.02 0.02 0.03 0.02 0.02 0.01 0.01 0.02 0.03 0.05 0.04 0.05 0.06 0.06 0.07 0.08 0.07 0.05 0.06 0.05 0.03 0.03 0.03 0.03 0.02 0.01 0.01 0.00 0.00 0.00 0.00 0.00 0.00 0.00 0.01 0.01 0.01 0.02 0.01 0.01 0.01 0.01
0.02 0.03 0.03 0.02 0.02 0.02 0.02 0.01 0.01 0.01 0.02 0.03 0.04 0.04 0.05 0.06 0.07 0.08 0.08 0.05 0.04 0.04 0.03 0.03 0.02 0.02 0.01 0.02 0.02 0.01 0.00 0.00 0.00 0.00 0.00 0.00 0.00 0.01 0.01 0.01 0.01 0.01 0.01
0.02 0.02 0.02 0.03 0.04 0.03 0.03 0.02 0.01 0.01 0.01 0.02 0.02 0.02 0.03 0.04 0.05 0.05 0.07 0.06 0.03 0.03 0.03 0.02 0.02 0.02 0.02 0.02 0.02 0.01 0.00 0.00 0.00 0.00 0.00 0.00 0.00 0.00 0.01 0.00 0.01 0.01 0.01
0.01 0.02 0.02 0.04 0.04 0.04 0.04 0.03 0.02 0.02 0.01 0.02 0.02 0.01 0.02 0.03 0.05 0.04 0.04 0.04 0.03 0.03 0.03 0.03 0.02 0.02 0.03 0.03 0.03 0.02 0.01 0.00 0.00 0.00 0.00 0.00 0.00 0.00 0.00 0.00 0.00 0.01 0.01
0.02 0.02 0.03 0.04 0.04 0.04 0.05 0.04 0.03 0.02 0.02 0.01 0.02 0.01 0.02 0.02 0.02 0.04 0.03 0.03 0.03 0.03 0.03 0.03 0.03 0.03 0.03 0.03 0.03 0.02 0.02 0.01 0.00 0.00 0.00 0.00 0.00 0.00 0.00 0.00 0.00 0.01 0.01
0.03 0.03 0.04 0.05 0.05 0.06 0.06 0.05 0.04 0.04 0.04 0.03 0.03 0.03 0.03 0.02 0.02 0.02 0.03 0.03 0.03 0.03 0.04 0.04 0.03 0.03 0.03 0.02 0.02 0.02 0.02 0.01 0.01 0.01 0.00 0.01 0.00 0.00 0.01 0.01 0.01 0.01 0.01
0.05 0.06 0.05 0.05 0.05 0.06 0.05 0.06 0.05 0.04 0.03 0.02 0.01 0.02 0.02 0.02 0.02 0.02 0.02 0.02 0.03 0.03 0.03 0.04 0.03 0.03 0.03 0.03 0.03 0.03 0.03 0.02 0.01 0.01 0.00 0.01 0.01 0.01 0.01 0.01 0.01 0.01 0.01
0.07 0.08 0.05 0.05 0.06 0.06 0.07 0.07 0.08 0.06 0.04 0.02 0.01 0.01 0.02 0.02 0.02 0.02 0.02 0.03 0.03 0.02 0.03 0.03 0.03 0.02 0.03 0.04 0.04 0.04 0.04 0.04 0.02 0.01 0.01 0.01 0.01 0.01 0.01 0.01 0.02 0.01 0.01
0.05 0.07 0.05 0.05 0.06 0.07 0.07 0.07 0.08 0.06 0.04 0.03 0.01 0.01 0.01 0.02 0.02 0.02 0.03 0.03 0.02 0.02 0.03 0.03 0.03 0.02 0.03 0.04 0.06 0.05 0.04 0.05 0.04 0.02 0.01 0.01 0.01 0.01 0.01 0.01 0.01 0.01 0.01
0.03 0.06 0.07 0.04 0.05 0.06 0.07 0.08 0.09 0.08 0.05 0.04 0.02 0.02 0.01 0.01 0.03 0.03 0.03 0.03 0.02 0.02 0.02 0.02 0.03 0.02 0.02 0.03 0.04 0.04 0.04 0.04 0.04 0.03 0.02 0.01 0.01 0.01 0.01 0.01 0.01 0.01 0.01
0.02 0.04 0.06 0.04 0.04 0.05 0.06 0.07 0.08 0.07 0.06 0.04 0.03 0.01 0.01 0.01 0.03 0.03 0.04 0.03 0.02 0.01 0.01 0.02 0.02 0.03 0.03 0.03 0.03 0.03 0.03 0.03 0.04 0.03 0.02 0.01 0.01 0.01 0.02 0.01 0.00 0.00 0.00
0.01 0.02 0.03 0.04 0.03 0.02 0.04 0.06 0.07 0.06 0.06 0.05 0.03 0.02 0.02 0.03 0.03 0.04 0.03 0.03 0.02 0.01 0.01 0.01 0.01 0.02 0.02 0.03 0.03 0.03 0.02 0.02 0.03 0.02 0.02 0.03 0.02 0.02 0.02 0.01 0.01 0.01 0.00
0.00 0.01 0.01 0.02 0.01 0.01 0.02 0.04 0.06 0.05 0.04 0.04 0.03 0.04 0.05 0.05 0.04 0.04 0.04 0.02 0.02 0.01 0.01 0.01 0.01 0.01 0.02 0.03 0.03 0.03 0.02 0.02 0.02 0.02 0.02 0.02 0.03 0.03 0.03 0.02 0.01 0.01 0.01
0.00 0.00 0.01 0.01 0.01 0.01 0.02 0.04 0.04 0.04 0.03 0.03 0.03 0.03 0.06 0.06 0.05 0.06 0.04 0.03 0.02 0.01 0.01 0.01 0.01 0.01 0.01 0.02 0.02 0.03 0.03 0.03 0.02 0.02 0.01 0.01 0.02 0.03 0.02 0.02 0.01 0.01 0.01
0.00 0.00 0.00 0.00 0.00 0.01 0.02 0.03 0.03 0.03 0.02 0.02 0.03 0.04 0.04 0.04 0.05 0.06 0.06 0.04 0.03 0.02 0.01 0.01 0.01 0.01 0.01 0.01 0.02 0.03 0.03 0.02 0.02 0.02 0.02 0.02 0.02 0.02 0.02 0.01 0.01 0.01 0.01
0.01 0.00 0.00 0.00 0.00 0.01 0.02 0.02 0.02 0.02 0.02 0.02 0.03 0.04 0.05 0.04 0.03 0.04 0.06 0.07 0.05 0.03 0.02 0.01 0.01 0.01 0.02 0.02 0.02 0.03 0.03 0.03 0.02 0.02 0.03 0.03 0.02 0.02 0.02 0.02 0.01 0.01 0.01
0.02 0.01 0.01 0.01 0.01 0.01 0.01 0.02 0.01 0.01 0.01 0.02 0.03 0.03 0.04 0.04 0.03 0.02 0.04 0.06 0.06 0.04 0.03 0.02 0.02 0.02 0.02 0.02 0.03 0.03 0.04 0.04 0.04 0.03 0.03 0.05 0.04 0.03 0.02 0.02 0.02 0.01 0.01
0.02 0.02 0.01 0.01 0.01 0.01 0.02 0.02 0.01 0.01 0.01 0.01 0.02 0.03 0.04 0.05 0.05 0.04 0.03 0.04 0.04 0.04 0.02 0.02 0.02 0.02 0.02 0.03 0.04 0.04 0.04 0.04 0.04 0.04 0.05 0.06 0.06 0.05 0.04 0.02 0.02 0.03 0.03
MSLP
1008.27 1008.26 1008.33 1008.47 1008.71 1009.04 1009.48 1010.03 1010.68 1011.41 1012.18 1012.94 1013.65 1014.29 1014.82 1015.25 1015.59 1015.86 1016.10 1016.35 1016.63 1016.97 1017.36 1017.82 1018.33 1018.88 1019.45 1020.01 1020.57 1021.10 1021.60 1022.08 1022.51 1022.89 1023.22 1023.49 1023.68 1023.78 1023.81 1023.75 1023.64 1023.47 1023.28
1007.96 1007.98 1008.08 1008.24 1008.47 1008.78 1009.20 1009.74 1010.39 1011.14 1011.95 1012.77 1013.55 1014.25 1014.83 1015.30 1015.65 1015.91 1016.14 1016.36 1016.62 1016.95 1017.36 1017.84 1018.38 1018.95 1019.53 1020.10 1020.65 1021.17 1021.65 1022.10 1022.53 1022.93 1023.30 1023.63 1023.90 1024.10 1024.22 1024.25 1024.20 1024.08 1023.90
1007.50 1007.58 1007.73 1007.93 1008.19 1008.51 1008.93 1009.47 1010.12 1010.89 1011.73 1012.59 1013.42 1014.17 1014.80 1015.29 1015.66 1015.93 1016.16 1016.38 1016.64 1016.97 1017.38 1017.87 1018.42 1019.00 1019.58 1020.13 1020.65 1021.13 1021.58 1022.00 1022.42 1022.83 1023.24 1023.63 1023.99 1024.30 1024.52 1024.65 1024.68 1024.62 1024.48
1006.94 1007.09 1007.30 1007.56 1007.86 1008.21 1008.65 1009.19 1009.86 1010.63 1011.49 1012.38 1013.24 1014.03 1014.70 1015.23 1015.62 1015.91 1016.15 1016.38 1016.65 1016.99 1017.42 1017.92 1018.47 1019.04 1019.60 1020.12 1020.59 1021.03 1021.42 1021.81 1022.21 1022.63 1023.07 1023.52 1023.96 1024.36 1024.68 1024.91 1025.03 1025.03 1024.94
1006.35 1006.55 1006.83 1007.15 1007.49 1007.88 1008.34 1008.89 1009.57 1010.35 1011.22 1012.12 1013.01 1013.83 1014.53 1015.09 1015.52 1015.84 1016.11 1016.37 1016.66 1017.02 1017.46 1017.97 1018.51 1019.07 1019.60 1020.08 1020.51 1020.89 1021.24 1021.59 1021.97 1022.38 1022.83 1023.32 1023.82 1024.29 1024.70 1025.01 1025.21 1025.28 1025.24
1005.79 1006.03 1006.35 1006.71 1007.09 1007.51 1007.98 1008.54 1009.22 1010.01 1010.88 1011.80 1012.70 1013.54 1014.28 1014.88 1015.35 1015.71 1016.02 1016.32 1016.65 1017.03 1017.49 1018.00 1018.54 1019.08 1019.58 1020.03 1020.42 1020.76 1021.06 1021.38 1021.72 1022.12 1022.57 1023.08 1023.60 1024.12 1024.58 1024.96 1025.22 1025.35 1025.36
1005.34 1005.59 1005.91 1006.28 1006.67 1007.09 1007.57 1008.14 1008.81 1009.59 1010.47 1011.39 1012.31 1013.18 1013.94 1014.58 1015.10 1015.51 1015.87 1016.22 1016.58 1017.00 1017.47 1017.99 1018.53 1019.06 1019.54 1019.96 1020.32 1020.62 1020.90 1021.18 1021.50 1021.87 1022.31 1022.81 1023.34 1023.87 1024.36 1024.77 1025.07 1025.25 1025.31
1005.03 1005.24 1005.54 1005.87 1006.24 1006.64 1007.11 1007.66 1008.33 1009.11 1009.98 1010.91 1011.84 1012.72 1013.51 1014.20 1014.76 1015.23 1015.64 1016.04 1016.45 1016.90 1017.39 1017.92 1018.46 1018.98 1019.46 1019.86 1020.21 1020.50 1020.76 1021.02 1021.32 1021.67 1022.08 1022.56 1023.07 1023.58 1024.07 1024.48 1024.81 1025.03 1025.13
1004.86 1005.01 1005.24 1005.51 1005.83 1006.18 1006.61 1007.14 1007.79 1008.56 1009.43 1010.35 1011.29 1012.19 1013.02 1013.73 1014.34 1014.86 1015.33 1015.77 1016.22 1016.70 1017.22 1017.77 1018.31 1018.84 1019.31 1019.73 1020.07 1020.36 1020.62 1020.88 1021.17 1021.50 1021.89 1022.33 1022.81 1023.29 1023.76 1024.17 1024.50 1024.74 1024.90
1004.82 1004.89 1005.02 1005.21 1005.44 1005.74 1006.12 1006.62 1007.24 1008.00 1008.86 1009.78 1010.72 1011.62 1012.46 1013.20 1013.85 1014.41 1014.92 1015.41 1015.90 1016.42 1016.96 1017.52 1018.08 1018.62 1019.11 1019.54 1019.90 1020.22 1020.49 1020.76 1021.05 1021.37 1021.74 1022.15 1022.59 1023.03 1023.47 1023.86 1024.20 1024.47 1024.67
1004.87 1004.84 1004.88 1004.97 1005.12 1005.34 1005.68 1006.14 1006.74 1007.48 1008.32 1009.22 1010.15 1011.05 1011.89 1012.64 1013.31 1013.90 1014.44 1014.97 1015.49 1016.04 1016.61 1017.20 1017.78 1018.34 1018.85 1019.30 1019.70 1020.04 1020.35 1020.64 1020.94 1021.26 1021.61 1022.00 1022.40 1022.82 1023.23 1023.61 1023.95 1024.24 1024.48
1004.93 1004.82 1004.76 1004.77 1004.84 1005.02 1005.31 1005.74 1006.33 1007.04 1007.86 1008.74 1009.64 1010.52 1011.34 1012.08 1012.75 1013.35 1013.92 1014.47 1015.03 1015.61 1016.21 1016.83 1017.43 1018.02 1018.56 1019.04 1019.47 1019.85 1020.19 1020.51 1020.83 1021.16 1021.51 1021.87 1022.26 1022.65 1023.03 1023.40 1023.74 1024.06 1024.33
1004.91 1004.74 1004.61 1004.56 1004.59 1004.74 1005.02 1005.44 1006.02 1006.72 1007.51 1008.36 1009.22 1010.05 1010.83 1011.54 1012.20 1012.80 1013.38 1013.95 1014.54 1015.15 1015.79 1016.43 1017.07 1017.68 1018.25 1018.77 1019.23 1019.64 1020.02 1020.37 1020.71 1021.05 1021.40 1021.75 1022.13 1022.50 1022.87 1023.23 1023.58 1023.91 1024.21
1004.71 1004.49 1004.34 1004.27 1004.30 1004.45 1004.75 1005.20 1005.78 1006.48 1007.25 1008.06 1008.87 1009.65 1010.38 1011.06 1011.68 1012.27 1012.86 1013.45 1014.06 1014.70 1015.37 1016.04 1016.71 1017.35 1017.95 1018.49 1018.98 1019.43 1019.83 1020.20 1020.56 1020.91 1021.26 1021.62 1021.98 1022.34 1022.70 1023.06 1023.41 1023.75 1024.07
1004.21 1003.98 1003.83 1003.79 1003.86 1004.07 1004.43 1004.93 1005.55 1006.26 1007.03 1007.81 1008.57 1009.30 1009.97 1010.60 1011.20 1011.78 1012.36 1012.97 1013.60 1014.27 1014.97 1015.67 1016.37 1017.03 1017.65 1018.22 1018.73 1019.19 1019.61 1020.00 1020.37 1020.74 1021.09 1021.45 1021.81 1022.16 1022.52 1022.87 1023.21 1023.55 1023.89
1003.33 1003.12 1003.01 1003.02 1003.18 1003.49 1003.95 1004.53 1005.21 1005.96 1006.74 1007.51 1008.24 1008.93 1009.56 1010.16 1010.73 1011.30 1011.89 1012.51 1013.17 1013.87 1014.60 1015.33 1016.05 1016.73 1017.37 1017.95 1018.47 1018.94 1019.37 1019.77 1020.15 1020.52 1020.88 1021.24 1021.60 1021.95 1022.30 1022.64 1022.98 1023.31 1023.65
1002.06 1001.86 1001.81 1001.92 1002.19 1002.62 1003.20 1003.90 1004.67 1005.48 1006.29 1007.07 1007.80 1008.48 1009.10 1009.68 1010.25 1010.82 1011.43 1012.07 1012.76 1013.49 1014.24 1014.99 1015.73 1016.42 1017.06 1017.65 1018.18 1018.66 1019.10 1019.51 1019.90 1020.27 1020.64 1021.00 1021.36 1021.71 1022.05 1022.39 1022.72 1023.04 1023.36
1000.45 1000.27 1000.28 1000.48 1000.87 1001.44 1002.15 1002.97 1003.85 1004.74 1005.62 1006.44 1007.20 1007.89 1008.53 1009.13 1009.72 1010.33 1010.96 1011.64 1012.36 1013.11 1013.88 1014.65 1015.38 1016.08 1016.72 1017.31 1017.84 1018.33 1018.78 1019.20 1019.60 1019.99 1020.37 1020.74 1021.11 1021.46 1021.80 1022.14 1022.46 1022.77 1023.07
998.65 998.48 998.54 998.83 999.33 1000.02 1000.85 1001.78 1002.77 1003.75 1004.70 1005.59 1006.41 1007.16 1007.85 1008.50 1009.15 1009.80 1010.49 1011.21 1011.96 1012.73 1013.51 1014.27 1015.00 1015.69 1016.33 1016.92 1017.45 1017.95 1018.41 1018.85 1019.28 1019.69 1020.09 1020.48 1020.86 1021.22 1021.57 1021.90 1022.22 1022.52 1022.81
996.91 996.73 996.81 997.16 997.74 998.51 999.44 1000.46 1001.52 1002.59 1003.62 1004.58 1005.47 1006.30 1007.07 1007.81 1008.54 1009.26 1010.01 1010.77 1011.55 1012.33 1013.11 1013.86 1014.58 1015.26 1015.88 1016.46 1017.00 1017.51 1018.00 1018.47 1018.92 1019.37 1019.80 1020.22 1020.62 1021.00 1021.36 1021.70 1022.02 1022.32 1022.61
995.50 995.29 995.38 995.74 996.34 997.15 998.11 999.17 1000.28 1001.40 1002.48 1003.51 1004.48 1005.40 1006.27 1007.10 1007.91 1008.72 1009.53 1010.34 1011.14 1011.93 1012.70 1013.44 1014.13 1014.78 1015.39 1015.96 1016.51 1017.03 1017.55 1018.05 1018.55 1019.03 1019.50 1019.95 1020.38 1020.78 1021.16 1021.51 1021.84 1022.15 1022.44
994.67 994.43 994.48 994.82 995.39 996.17 997.10 998.14 999.24 1000.35 1001.45 1002.52 1003.55 1004.54 1005.49 1006.42 1007.32 1008.21 1009.08 1009.93 1010.75 1011.54 1012.29 1012.99 1013.66 1014.28 1014.87 1015.43 1015.98 1016.53 1017.07 1017.61 1018.14 1018.67 1019.17 1019.66 1020.11 1020.54 1020.94 1021.31 1021.65 1021.98 1022.29
994.60 994.32 994.33 994.59 995.08 995.77 996.60 997.54 998.55 999.60 1000.66 1001.72 1002.77 1003.80 1004.82 1005.81 1006.79 1007.74 1008.66 1009.54 1010.37 1011.15 1011.88 1012.55 1013.18 1013.77 1014.34 1014.89 1015.45 1016.01 1016.57 1017.14 1017.71 1018.27 1018.80 1019.31 1019.79 1020.24 1020.65 1021.04 1021.40 1021.75 1022.08
995.35 995.04 994.97 995.13 995.50 996.03 996.70 997.48 998.34 999.26 1000.22 1001.20 1002.22 1003.24 1004.28 1005.31 1006.32 1007.31 1008.26 1009.15 1009.99 1010.76 1011.46 1012.10 1012.70 1013.26 1013.81 1014.36 1014.92 1015.49 1016.07 1016.66 1017.24 1017.82 1018.37 1018.90 1019.39 1019.84 1020.26 1020.66 1021.04 1021.41 1021.77
996.83 996.49 996.34 996.39 996.59 996.94 997.40 997.96 998.61 999.34 1000.13 1000.99 1001.91 1002.87 1003.87 1004.89 1005.91 1006.90 1007.86 1008.75 1009.58 1010.33 1011.01 1011.63 1012.21 1012.75 1013.29 1013.83 1014.39 1014.96 1015.55 1016.15 1016.74 1017.32 1017.87 1018.39 1018.87 1019.32 1019.74 1020.15 1020.54 1020.92 1021.30
998.83 998.47 998.26 998.18 998.21 998.34 998.57 998.89 999.29 999.78 1000.37 1001.05 1001.82 1002.66 1003.58 1004.53 1005.51 1006.48 1007.41 1008.29 1009.10 1009.84 1010.51 1011.11 1011.68 1012.22 1012.76 1013.30 1013.86 1014.43 1015.02 1015.61 1016.19 1016.75 1017.29 1017.78 1018.25 1018.68 1019.09 1019.48 1019.87 1020.27 1020.68
Thickness
5716 5717 5717 5716 5714 5712 5710 5709 5708 5706 5705 5702 5700 5697 5694 5695 5695 5695 5695 5694 5693 5692 5692 5690 5689 5689 5688 5687 5687 5686 5685 5684 5684 5682 5679 5680 5681 5680 5680 5680 5680 5680 5680
5709 5710 5711 5710 5710 5708 5706 5705 5704 5702 5701 5700 5698 5695 5693 5691 5690 5690 5689 5689 5688 5687 5686 5685 5683 5683 5682 5681 5681 5680 5678 5677 5678 5674 5670 5666 5668 5671 5673 5672 5673 5673 5674
5705 5705 5705 5705 5704 5702 5702 5703 5700 5699 5698 5697 5694 5692 5688 5686 5684 5683 5683 5683 5683 5682 5680 5679 5678 5677 5677 5675 5674 5674 5673 5670 5670 5670 5666 5659 5656 5659 5663 5664 5665 5666 5666
5703 5702 5701 5699 5699 5699 5700 5699 5697 5695 5694 5693 5690 5687 5682 5679 5679 5679 5679 5678 5678 5677 5676 5675 5674 5673 5672 5670 5670 5669 5668 5666 5664 5664 5663 5661 5658 5653 5652 5655 5657 5658 5659
5700 5698 5698 5697 5696 5696 5694 5694 5692 5690 5689 5688 5686 5682 5679 5677 5675 5675 5674 5673 5672 5671 5670 5670 5669 5668 5667 5666 5665 5664 5663 5661 5659 5657 5656 5654 5653 5651 5647 5645 5647 5649 5651
5697 5695 5695 5693 5691 5690 5689 5688 5686 5684 5684 5683 5680 5677 5675 5673 5670 5669 5667 5666 5666 5665 5665 5664 5663 5662 5661 5660 5659 5658 5657 5656 5654 5652 5650 5648 5646 5644 5642 5639 5639 5640 5643
5692 5690 5688 5686 5685 5684 5683 5682 5681 5678 5678 5677 5675 5673 5671 5669 5666 5664 5662 5660 5659 5658 5658 5658 5657 5656 5656 5655 5654 5652 5651 5650 5648 5646 5644 5643 5642 5640 5638 5636 5634 5634 5635
5688 5687 5685 5683 5681 5680 5679 5677 5675 5673 5672 5670 5669 5668 5666 5664 5662 5660 5658 5656 5655 5654 5654 5653 5651 5650 5649 5648 5647 5645 5644 5643 5642 5641 5638 5637 5636 5635 5634 5631 5628 5626 5626
5684 5683 5681 5679 5677 5675 5674 5673 5670 5668 5666 5665 5664 5662 5661 5659 5657 5655 5654 5652 5651 5650 5648 5647 5645 5644 5642 5641 5640 5638 5636 5635 5634 5633 5632 5630 5630 5629 5628 5626 5625 5621 5618
5679 5678 5676 5675 5673 5672 5670 5668 5666 5664 5662 5660 5658 5657 5655 5653 5651 5649 5647 5646 5645 5644 5642 5640 5639 5637 5636 5634 5632 5630 5629 5628 5627 5626 5624 5623 5622 5621 5620 5619 5618 5617 5615
5674 5672 5671 5670 5668 5666 5665 5662 5661 5658 5656 5654 5652 5650 5648 5647 5645 5643 5641 5640 5638 5637 5635 5633 5631 5630 5628 5627 5625 5623 5622 5620 5619 5618 5617 5615 5615 5613 5612 5611 5610 5609 5608
5669 5667 5665 5663 5661 5659 5658 5656 5654 5652 5650 5649 5646 5644 5642 5640 5638 5636 5635 5633 5631 5630 5628 5627 5624 5623 5621 5620 5618 5615 5614 5612 5610 5609 5608 5607 5607 5605 5604 5602 5602 5601 5601
5661 5660 5657 5655 5654 5652 5651 5649 5648 5646 5644 5643 5640 5637 5635 5633 5631 5630 5628 5627 5624 5622 5620 5619 5616 5614 5613 5611 5610 5608 5606 5604 5603 5601 5600 5599 5598 5596 5595 5594 5593 5593 5594
5653 5651 5649 5648 5647 5646 5644 5642 5641 5640 5638 5635 5633 5630 5628 5626 5624 5623 5621 5619 5617 5614 5612 5610 5608 5606 5604 5603 5601 5599 5597 5595 5594 5593 5592 5591 5590 5588 5587 5586 5585 5584 5583
5645 5644 5642 5641 5640 5639 5637 5635 5634 5632 5631 5628 5625 5623 5621 5620 5617 5615 5613 5612 5609 5607 5604 5601 5599 5596 5595 5594 5592 5590 5588 5586 5585 5584 5583 5582 5582 5581 5580 5579 5576 5575 5573
5639 5638 5636 5635 5634 5633 5632 5629 5627 5626 5624 5621 5618 5616 5614 5612 5610 5608 5606 5603 5601 5598 5596 5593 5590 5587 5587 5585 5584 5582 5579 5577 5576 5574 5573 5573 5572 5571 5571 5570 5569 5568 5566
5633 5631 5630 5629 5627 5627 5626 5623 5622 5620 5617 5614 5612 5609 5607 5605 5603 5601 5598 5595 5592 5590 5587 5584 5581 5579 5578 5577 5575 5573 5571 5569 5567 5566 5564 5564 5563 5562 5560 5560 5559 5558 5559
5627 5625 5624 5623 5622 5621 5620 5618 5615 5612 5609 5607 5605 5602 5600 5598 5596 5593 5590 5587 5584 5581 5578 5575 5573 5571 5571 5570 5568 5566 5564 5561 5559 5557 5556 5555 5554 5554 5552 5551 5549 5549 5549
5623 5622 5620 5619 5617 5615 5612 5610 5607 5604 5602 5600 5598 5596 5594 5591 5588 5586 5583 5580 5576 5573 5570 5568 5566 5564 5563 5563 5561 5559 5555 5553 5551 5550 5550 5549 5548 5548 5546 5544 5541 5540 5541
5618 5616 5615 5613 5611 5609 5606 5603 5600 5597 5595 5594 5592 5591 5588 5585 5582 5579 5576 5572 5569 5566 5564 5561 5559 5557 5556 5556 5554 5552 5548 5544 5543 5542 5542 5543 5542 5542 5539 5536 5534 5532 5532
5613 5610 5608 5606 5604 5602 5599 5595 5592 5590 5589 5587 5586 5584 5582 5579 5576 5572 5569 5565 5561 5558 5555 5553 5552 5550 5550 5549 5547 5545 5541 5538 5536 5535 5534 5535 5535 5535 5533 5531 5529 5528 5527
5605 5603 5600 5597 5595 5594 5591 5587 5585 5584 5582 5580 5578 5576 5574 5572 5569 5564 5561 5557 5553 5549 5547 5545 5543 5542 5542 5541 5540 5539 5537 5534 5531 5529 5529 5528 5528 5527 5526 5525 5524 5523 5521
5597 5595 5593 5590 5587 5586 5584 5581 5579 5577 5574 5572 5571 5569 5567 5564 5561 5557 5553 5549 5546 5543 5540 5538 5536 5535 5534 5535 5534 5533 5531 5529 5527 5525 5525 5524 5523 5521 5519 5519 5518 5516 5513
5589 5587 5584 5581 5579 5578 5577 5575 5572 5569 5567 5565 5563 5561 5559 5556 5553 5550 5547 5543 5540 5537 5535 5533 5531 5529 5528 5528 5528 5527 5525 5523 5521 5519 5518 5518 5516 5514 5513 5512 5510 5509 5507
5580 5579 5576 5573 5571 5570 5568 5567 5565 5562 5559 5557 5555 5553 5551 5549 5545 5542 5539 5538 5535 5534 5531 5529 5527 5525 5523 5525 5525 5523 5521 5518 5516 5513 5511 5509 5507 5506 5505 5504 5503 5502 5500
5572 5570 5567 5565 5563 5562 5560 5559 5558 5556 5553 5550 5548 5546 5543 5540 5537 5534 5531 5530 5529 5529 5528 5526 5524 5522 5521 5521 5519 5518 5516 5513 5511 5507 5504 5502 5501 5500 5498 5496 5495 5494 5493